This demonstration page uses our WeatherBlox Daily Observations layout. Learn more.

Left ArrowRight Arrow

34.74481, -87.66753

Hourly Observations for March 31, 2022

Temp ( °F °C ) Dew Point ( °F °C ) Humidity (%) Winds ( mph kmh ) Pressure ( in mb ) Visibility ( mi km ) Precip ( " mm )
12:40 am 00:40 Mostly Cloudy 60 15.6 56 13.3 86 86 SW 9 15 29.58 1002 10 16 0.00 0.00
12:53 am 00:53 Mostly Cloudy 60 15.6 56 13.3 86 86 SSW 10 17 29.57 1001 10 16 0.00 0.00
1:07 am 01:07 Partly Cloudy 59 15 56 13.3 90 90 SSW 9 15 29.58 1002 10 16 0.00 0.00
1:53 am 01:53 Partly Cloudy 59 15 56 13.3 90 90 SSW 7 11 29.56 1001 10 16 0.00 0.00
2:03 am 02:03 Mostly Cloudy 60 15.6 56 13.3 86 86 SSW 9 15 29.58 1002 10 16 0.00 0.00
2:53 am 02:53 Cloudy 60 15.6 56 13.3 86 86 WSW 10 17 29.56 1001 10 16 0.00 0.00
3:53 am 03:53 Cloudy 60 15.6 55 12.8 84 84 WSW 13 20 29.56 1001 10 16 0.00 0.00
4:24 am 04:24 Cloudy 58 14.4 53 11.7 84 84 WNW 20 31 29.60 1002 10 16 0.00 0.00
4:53 am 04:53 Cloudy 56 13.3 51 10.6 84 84 W 20 31 29.60 1002 10 16 0.00 0.00
5:06 am 05:06 Cloudy 56 13.3 50 10 81 81 W 16 26 29.62 1003 10 16 0.00 0.00
5:53 am 05:53 Cloudy 54 12.2 49 9.4 83 83 W 14 22 29.62 1003 10 16 0.00 0.00
6:48 am 06:48 Cloudy 52 11 46 8 82 82 WNW 13 20 29.68 1005 10 16 0.00 0.00
6:53 am 06:53 Cloudy 51 10.6 46 7.8 83 83 WNW 13 20 29.65 1004 10 16 0.00 0.00
7:38 am 07:38 Cloudy with Mist and Fog 49 9.4 45 7.2 86 86 WNW 14 22 29.71 1006 6 10 0.00 0.00
7:53 am 07:53 Cloudy 49 9.4 46 7.8 90 90 WNW 13 20 29.70 1006 7 11 0.00 0.00
8:09 am 08:09 Cloudy with Mist and Fog 49 9.4 46 7.8 90 90 W 17 28 29.74 1007 4 6 0.00 0.00
8:15 am 08:15 Cloudy with Mist and Fog 48 8.9 45 7.2 89 89 WNW 17 28 29.74 1007 3 4 0.00 0.00
8:23 am 08:23 Cloudy with Mist and Fog 48 8.9 46 7.8 93 93 WNW 14 22 29.74 1007 2 3 0.00 0.00
8:53 am 08:53 Cloudy with Mist and Fog 47 8.3 44 6.7 90 90 NW 15 24 29.73 1007 3 5 0.00 0.00
9:08 am 09:08 Cloudy 47 8.3 43 6.1 86 86 WNW 13 20 29.75 1007 10 16 0.00 0.00
9:24 am 09:24 Cloudy 48 8.9 42 5.6 80 80 WNW 14 22 29.76 1008 10 16 0.00 0.00
9:53 am 09:53 Cloudy 49 9.4 42 5.6 77 77 WNW 12 19 29.75 1007 10 16 0.00 0.00
10:53 am 10:53 Cloudy 49 9.4 41 5 74 74 WNW 15 24 29.78 1008 10 16 0.00 0.00
11:53 am 11:53 Cloudy 52 11.1 39 3.9 61 61 W 15 24 29.78 1008 10 16 0.00 0.00
12:53 pm 12:53 Mostly Cloudy 54 12.2 41 5 62 62 W 13 20 29.78 1009 10 16 0.00 0.00
1:53 pm 13:53 Partly Cloudy 57 13.9 41 5 55 55 W 10 17 29.76 1008 10 16 0.00 0.00
2:53 pm 14:53 Mostly Sunny 59 15 40 4.4 49 49 W 9 15 29.75 1008 10 16 0.00 0.00
3:53 pm 15:53 Mostly Sunny 61 16.1 39 3.9 44 44 WSW 14 22 29.73 1007 10 16 0.00 0.00
4:53 pm 16:53 Sunny 61 16.1 39 3.9 44 44 SW 12 19 29.73 1007 10 16 0.00 0.00
5:53 pm 17:53 Cloudy 60 15.6 38 3.3 44 44 WSW 15 24 29.74 1007 10 16 0.00 0.00
6:53 pm 18:53 Cloudy 59 15 38 3.3 46 46 W 13 20 29.77 1008 10 16 0.00 0.00
7:53 pm 19:53 Cloudy 57 13.9 37 2.8 47 47 W 17 28 29.80 1009 10 16 0.00 0.00
8:53 pm 20:53 Cloudy 56 13.3 37 2.8 49 49 W 14 22 29.83 1010 10 16 0.00 0.00
9:53 pm 21:53 Cloudy 51 10.6 40 4.4 66 66 NW 12 19 29.88 1012 10 16 0.00 0.00
10:53 pm 22:53 Cloudy 49 9.4 40 4.4 71 71 NW 9 15 29.91 1013 10 16 0.00 0.00
11:53 pm 23:53 Cloudy 48 8.9 37 2.8 66 66 NW 14 22 29.93 1014 10 16 0.00 0.00

Powered by AerisWeather